Regional Weather Roundup
Issued by NWS

Home | Current Version | Previous Version | Text Only | Print | Product List | Glossary Off
Versions: 1 2 3 4 5 6 7 8 9 10 11 12 13 14 15 16 17 18 19 20 21 22 23 24 25 26 27 28 29 30 31 32 33 34 35 36 37 38 39 40 41 42 43 44 45 46 47 48 49 50

000
ASUS43 KDMX 200306
RWRIA

WEATHER ROUNDUP FOR IOWA
NATIONAL WEATHER SERVICE DES MOINES IA
900 PM CST MON FEB 19 2018

NOTE: "FAIR" INDICATES FEW OR NO CLOUDS BELOW 12,000 FEET WITH NO
SIGNIFICANT WEATHER AND/OR OBSTRUCTIONS TO VISIBILITY.

* - THESE STATIONS ARE NOT NWS STATIONS...THUS NOT UNDER NWS
QUALITY CONTROL.  THEY ALSO DO NOT REPORT WEATHER SUCH
AS PRECIPITATION OR FOG.

IAZ001>003-012>014-020>022-031>034-043>046-200400-
   NORTHWEST IOWA

CITY           SKY/WX    TMP DP  RH WIND       PRES   REMARKS
CARROLL *      CLOUDY    23  23 100 MISG      29.84S
CHEROKEE *     CLOUDY    19  19  98 N7        29.86R FOG     WCI  10
DENISON *      CLOUDY    21  21 100 N6        29.87S WCI  14
LE MARS *      CLOUDY    18  16  93 MISG      29.87F
ORANGE CITY *  CLOUDY    18  18 100 N10       29.86F WCI   6
SHELDON *      CLOUDY    16  16 100 MISG      29.84F
SIOUX CITY     CLOUDY    19  16  88 N12       29.88F WCI   7
SPENCER        LGT SNOW  19  16  88 N15G22    29.85R FOG     WCI   5
STORM LAKE *   CLOUDY    19  19 100 MISG      29.83R FOG
$$

IAZ055>058-069>071-079>083-090>094-200400-
   SOUTHWEST IOWA

CITY           SKY/WX    TMP DP  RH WIND       PRES   REMARKS
ATLANTIC *     CLOUDY    25  25 100 N10       29.85F WCI  15
AUDUBON *      CLOUDY    23  21  93 CALM      29.83F
CLARINDA *     CLOUDY    27  27 100 N10       29.86F WCI  17
COUNCIL BLFS * CLOUDY    23  23 100 N10       29.83F WCI  12
CRESTON *      CLOUDY    27  25  93 N10       29.83S WCI  17
HARLAN  *      CLOUDY    23  23 100 N6G13     29.88S WCI  16
LAMONI         CLOUDY    29  27  92 N8        29.81S WCI  21
RED OAK *      CLOUDY    25  25 100 N10       29.85S WCI  15
SHENANDOAH *   CLOUDY    25  25 100 N8        29.86F WCI  16
$$

IAZ047>049-059>061-072>074-084-200400-
   CENTRAL IOWA

CITY           SKY/WX    TMP DP  RH WIND       PRES   REMARKS
AMES           CLOUDY    29  28  96 NW8       29.82R FOG     WCI  21
ANKENY *       CLOUDY    28  28 100 NW8G15    29.84S FOG     WCI  20
BOONE *        CLOUDY    28  28 100 MISG      29.82R
CHARITON *     CLOUDY    30  30 100 NW9       29.82R FOG     WCI  22
DES MOINES     CLOUDY    28  26  92 NW13      29.83S FOG     WCI  17
GRINNELL*      FOG       32  31  99 W9        29.80S VSB 3/4 WCI  24
KNOXVILLE *    FOG       30  30 100 W12       29.81R VSB 1   WCI  21
MARSHALLTOWN   FOG       32  32 100 W9        29.79R VSB 1   WCI  24
NEWTON *       FOG       30  30 100 W10G16    29.81S VSB 1/2 WCI  21
PELLA *        CLOUDY    31  30  97 W10       29.82F FOG     WCI  22
PERRY *        CLOUDY    26  26  99 NW8       29.84S FOG     WCI  18
$$

IAZ004>006-015-016-023>025-035-036-200400-
   NORTH CENTRAL IOWA

CITY           SKY/WX    TMP DP  RH WIND       PRES   REMARKS
ALGONA *       CLOUDY    25 N/A N/A MISG      29.81S
CLARION *      CLOUDY    27  28 100 N10       29.80R WCI  17
ESTHERVILLE    CLOUDY    18  16  92 N15       29.85R FOG     WCI   4
FORT DODGE *   CLOUDY    25  24  96 N7        29.82S WCI  17
MASON CITY     CLOUDY    26  24  92 N17       29.79S WCI  13
FOREST CITY *  CLOUDY    28  27  93 N7        29.80S WCI  21
WEBSTER CITY * CLOUDY    27  27 100 NW13      29.79S WCI  16
IOWA FALLS *   CLOUDY    31  31  99 NW9       29.80R FOG     WCI  23
$$

IAZ007>011-017>019-026>030-037>042-050>054-066-200400-
   NORTHEAST IOWA

CITY           SKY/WX    TMP DP  RH WIND       PRES   REMARKS
CEDAR RAPIDS   FOG       36  35  96 W10       29.77R VSB 1   WCI  28
CHARLES CITY * CLOUDY    32  32 100 N12       29.77R FOG     WCI  23
CLINTON *      LGT RAIN  45  45 100 MISG        N/A  VSB 1/4
DECORAH *      FOG       36  36 100 N6        29.74R VSB 1/2 WCI  31
DUBUQUE        FOG       37  36  96 SW7       29.74R VSB 1/4 WCI  32
MONTICELLO *   FOG       39  39 100 SW7       29.76R VSB 1/4 WCI  34
OELWEIN *      FOG       34  34 100 SW8       29.76R VSB 1/4 WCI  27
WATERLOO       FOG       33  33 100 W5        29.77R VSB 1   WCI  29
$$

IAZ064-065-067-068-078-200400-
   EAST CENTRAL IOWA

CITY           SKY/WX    TMP DP  RH WIND       PRES   REMARKS
DAVENPORT      CLOUDY    47  44  90 W10       29.79R
IOWA CITY      CLOUDY    38 N/A N/A W7        29.80R HAZE    WCI  33
MT. PLEASANT * DRIZZLE   39  39 100 W8        29.79R WCI  34
MUSCATINE *    CLOUDY    41  39  93 W8        29.79S
QUAD CITIES    LGT RAIN  51  50  96 W9        29.75R FOG
$$

IAZ062-063-075>077-085>089-095>099-200400-
   SOUTHEAST IOWA

CITY           SKY/WX    TMP DP  RH WIND       PRES   REMARKS
BURLINGTON     CLOUDY    47  46  97 NW8       29.77R
FAIRFIELD *    CLOUDY    36  36 100 NW10      29.79R WCI  28
FORT MADISON * HVY RAIN  46  46 100 NW8       29.79R
KEOKUK *       LGT RAIN  50  50 100 N8G14     29.77R
OSKALOOSA *    CLOUDY    32  32 100 NW12      29.81R FOG     WCI  23
OTTUMWA        CLOUDY    34  32  92 W10       29.81R WCI  26
WASHINGTON *   CLOUDY    37  37 100 W13       29.81R FOG     WCI  29
$$

ABBREVIATIONS USED IN REMARKS
   TC - TEMPERATURES IN CELSIUS
  WCI - WIND CHILL INDEX
   HX - HEAT INDEX
  VSB - VISIBILITY
$$





USA.gov is the U.S. government's official web portal to all federal, state and local government web resources and services.